Location: Fredericton
(45.9636°N, 66.6431°W)
Time: 15:21:07
(UTC-03:00)

S-56A Canister/Altair - All Passes

Search period start: 26 May 2022 00:00
Search period end: 05 June 2022 00:00
Orbit: 634 x 2499 km, 38.9° (Epoch: 26 May)

Date Brightness Start Highest point End Pass type
(mag) Time Alt. Az. Time Alt. Az. Time Alt. Az.
26 May - 01:45:14 10° W 01:55:46 26° SW 02:04:19 10° S visible
26 May - 16:52:43 10° S 17:02:05 25° SE 17:12:55 10° E daylight
26 May - 18:53:34 10° SW 19:06:21 52° SSE 19:20:34 10° E daylight
26 May - 20:57:52 10° WSW 21:12:20 66° S 21:26:22 10° E daylight
26 May - 23:03:50 10° W 23:18:23 56° SSW 23:30:42 10° SE visible
27 May - 01:11:14 10° W 01:22:49 30° SW 01:32:15 10° SSE visible
27 May - 16:20:47 10° S 16:29:06 22° SE 16:38:48 10° E daylight
27 May - 18:20:50 10° SW 18:32:59 48° SSE 18:47:04 10° E daylight
27 May - 20:24:40 10° WSW 20:38:46 65° S 20:53:10 10° E daylight
27 May - 22:30:20 10° W 22:44:58 59° SSW 22:57:54 10° ESE visible
28 May - 00:37:22 10° W 00:49:46 34° SW 01:00:02 10° SSE visible
28 May - 15:49:07 10° SSE 15:56:13 18° SE 16:04:26 10° E daylight
28 May - 17:48:11 10° SW 17:59:41 45° SSE 18:13:28 10° E daylight
28 May - 19:51:35 10° WSW 20:05:14 64° S 20:19:53 10° E daylight
28 May - 21:56:56 10° W 22:11:29 61° SSW 22:24:58 10° ESE visible
29 May - 00:03:36 10° W 00:16:38 38° SW 00:27:40 10° SSE visible
29 May - 02:15:03 10° WSW 02:19:36 12° WSW 02:23:50 10° SW visible
29 May - 15:17:52 10° SSE 15:23:25 15° SE 15:29:42 10° E daylight
29 May - 17:15:41 10° SSW 17:26:29 41° SE 17:39:47 10° E daylight
29 May - 19:18:36 10° WSW 19:31:42 63° S 19:46:29 10° E daylight
29 May - 21:23:36 10° W 21:37:58 63° SSW 21:51:56 10° ESE visible
29 May - 23:29:55 10° W 23:43:24 41° SSW 23:55:09 10° SSE visible
30 May - 01:39:44 10° W 01:46:47 16° SW 01:53:10 10° SSW visible
30 May - 14:47:35 10° SE 14:50:42 11° ESE 14:54:03 10° ESE daylight
30 May - 16:43:18 10° SSW 16:53:21 37° SE 17:06:01 10° E daylight
30 May - 18:45:43 10° WSW 18:58:14 61° SSE 19:13:01 10° E daylight
30 May - 20:50:23 10° W 21:04:26 64° S 21:18:48 10° ESE daylight
30 May - 22:56:22 10° W 23:10:07 45° SSW 23:22:31 10° SE visible
31 May - 01:05:07 10° W 01:13:53 19° SW 01:21:45 10° SSW visible
31 May - 16:11:03 10° SSW 16:20:19 33° SE 16:32:09 10° E daylight
31 May - 18:12:56 10° WSW 18:24:49 59° SSE 18:39:29 10° E daylight
31 May - 20:17:15 10° W 20:30:53 65° S 20:45:34 10° ESE daylight
31 May - 22:22:54 10° W 22:36:45 48° SSW 22:49:45 10° SE visible
01 Jun - 00:30:51 10° W 00:40:54 22° SW 00:49:57 10° S visible
01 Jun - 15:38:57 10° SSW 15:47:23 29° SE 15:58:13 10° E daylight
01 Jun - 17:40:15 10° SW 17:51:29 56° SSE 18:05:51 10° E daylight
01 Jun - 19:44:12 10° W 19:57:21 65° S 20:12:13 10° ESE daylight
01 Jun - 21:49:33 10° W 22:03:20 51° SSW 22:16:52 10° SE visible
01 Jun - 23:56:51 10° W 00:07:51 25° SW 00:17:54 10° S visible
02 Jun - 15:07:00 10° S 15:14:33 25° SE 15:24:10 10° E daylight
02 Jun - 17:07:40 10° SW 17:18:14 52° SSE 17:32:10 10° E daylight
02 Jun - 19:11:16 10° WSW 19:23:51 65° S 19:38:47 10° ESE daylight
02 Jun - 21:16:17 10° W 21:29:53 54° SSW 21:43:52 10° SE daylight
02 Jun - 23:23:02 10° W 23:34:43 29° SW 23:45:38 10° S visible
03 Jun - 14:35:14 10° S 14:41:47 21° SE 14:49:59 10° E daylight
03 Jun - 16:35:11 10° SW 16:45:04 49° SSE 16:58:26 10° E daylight
03 Jun - 18:38:24 10° WSW 18:50:23 65° S 19:05:16 10° E daylight
03 Jun - 20:43:07 10° W 20:56:25 56° SSW 21:10:46 10° SE daylight
03 Jun - 22:49:24 10° W 23:01:30 32° SW 23:13:11 10° SSE visible
04 Jun - 14:03:46 10° SSE 14:09:08 17° SE 14:15:36 10° E daylight
04 Jun - 16:02:48 10° SW 16:12:00 45° SSE 16:24:40 10° E daylight
04 Jun - 18:05:38 10° WSW 18:16:59 64° S 18:31:41 10° E daylight
04 Jun - 20:10:03 10° W 20:22:57 58° SSW 20:37:31 10° ESE daylight
04 Jun - 22:15:53 10° W 22:28:15 35° SW 22:40:35 10° SSE visible
